Temp: 5.2°C   Baro: 1014.1mb
  Wind: 2.9mph   Dir: SE (137°)
  Rain: 1.0mm (0.0mm/hr)
  Solar: 0W/m2  Hum: 94%
 
Bath Spa Weather Station Historical Data
Daily Summary for October 21, 2020 Units:  Metric    English   Both
Daily Weekly Monthly Yearly Custom
  High: Low: Average:
Temperature: 14.7 °C 12 °C 13.9 °C
Dew Point: 13.8 °C 10.6 °C 13.1 °C
Humidity: 95% 85.2% 92%
Wind Speed: 16.7km/h 0km/h 4.7km/h
Wind Gust: 30.6km/h - -
Wind- - SSW
Pressure: 1002.3 hPa 991.4 hPa -
Precipitation: 9.4 mm    
Historical Graphs
 
 
Tabular Data for October 21, 2020
Time Temperature Dew Point Pressure Wind Wind Speed Wind Gust Humidity Rainfall Rate (Hourly) solar
00:04 14.2 °C 13.1 °C 997.2 hPa SE 1.3 km/h 6.4 km/h 90% 0 mm 0 W/m2
00:09 14.2 °C 13.1 °C 997.2 hPa SE 3.2 km/h 6.4 km/h 90% 0 mm 0 W/m2
00:14 14.2 °C 13.1 °C 997.2 hPa SE 3.5 km/h 6.4 km/h 90% 0 mm 0 W/m2
00:19 14.2 °C 13.1 °C 997.2 hPa SE 3.7 km/h 6.4 km/h 90% 0 mm 0 W/m2
00:24 14.2 °C 13.2 °C 997.2 hPa SE 2.6 km/h 4.8 km/h 91% 0 mm 0 W/m2
00:29 14.2 °C 13.2 °C 997.2 hPa SE 5 km/h 8 km/h 91% 0 mm 0 W/m2
00:34 14.3 °C 13.3 °C 997.2 hPa SE 3.9 km/h 11.3 km/h 91% 0 mm 0 W/m2
00:39 14.3 °C 13.3 °C 997.2 hPa SE 4.5 km/h 8 km/h 91% 0 mm 0 W/m2
00:44 14.3 °C 13.3 °C 996.8 hPa SE 3.4 km/h 9.7 km/h 91% 0 mm 0 W/m2
00:49 14.4 °C 13.4 °C 996.8 hPa SE 2.1 km/h 6.4 km/h 91% 0 mm 0 W/m2
00:54 14.4 °C 13.4 °C 996.8 hPa SE 3.2 km/h 6.4 km/h 91% 0 mm 0 W/m2
00:59 14.4 °C 13.4 °C 996.8 hPa SE 3.7 km/h 8 km/h 91% 0 mm 0 W/m2
01:04 14.4 °C 13.4 °C 996.8 hPa SSE 4.3 km/h 11.3 km/h 91% 0 mm 0 W/m2
01:09 14.6 °C 13.6 °C 996.8 hPa SSE 6 km/h 8 km/h 91% 0 mm 0 W/m2
01:14 14.6 °C 13.6 °C 996.8 hPa South 5 km/h 12.9 km/h 91% 0 mm 0 W/m2
01:19 14.6 °C 13.6 °C 996.8 hPa SSE 4.2 km/h 9.7 km/h 91% 0 mm 0 W/m2
01:24 14.6 °C 13.6 °C 996.8 hPa SSE 5 km/h 8 km/h 91% 0 mm 0 W/m2
01:29 14.7 °C 13.7 °C 996.8 hPa SSE 6.1 km/h 11.3 km/h 91% 0 mm 0 W/m2
01:34 14.7 °C 13.7 °C 996.8 hPa SSE 3.7 km/h 9.7 km/h 91% 0 mm 0 W/m2
01:39 14.7 °C 13.7 °C 996.8 hPa South 3.5 km/h 8 km/h 91% 0 mm 0 W/m2
01:44 14.7 °C 13.7 °C 996.8 hPa South 2.1 km/h 8 km/h 91% 0 mm 0 W/m2
01:49 14.6 °C 13.6 °C 996.8 hPa South 1.6 km/h 6.4 km/h 91% 0 mm 0 W/m2
01:54 14.6 °C 13.6 °C 996.8 hPa South 2.6 km/h 6.4 km/h 91% 0 mm 0 W/m2
01:59 14.6 °C 13.6 °C 996.8 hPa South 1.3 km/h 4.8 km/h 91% 0 mm 0 W/m2
02:04 14.6 °C 13.6 °C 996.5 hPa South 0.8 km/h 4.8 km/h 91% 0 mm 0 W/m2
02:09 14.6 °C 13.6 °C 996.5 hPa South 0.6 km/h 4.8 km/h 91% 0 mm 0 W/m2
02:14 14.6 °C 13.6 °C 996.5 hPa South 1.9 km/h 4.8 km/h 91% 0 mm 0 W/m2
02:19 14.6 °C 13.6 °C 996.5 hPa Calm   3.2 km/h 91% 0 mm 0 W/m2
02:24 14.6 °C 13.6 °C 996.5 hPa Calm     91% 0 mm 0 W/m2
02:29 14.5 °C 13.5 °C 996.5 hPa South 0.6 km/h 3.2 km/h 91% 0 mm 0 W/m2
02:34 14.4 °C 13.4 °C 996.2 hPa Calm   4.8 km/h 91% 0 mm 0 W/m2
02:39 14.4 °C 13.4 °C 996.2 hPa South 0.6 km/h 3.2 km/h 91% 0 mm 0 W/m2
02:44 14.4 °C 13.4 °C 996.2 hPa South 0.3 km/h 1.6 km/h 91% 0 mm 0 W/m2
02:54 14.4 °C 13.4 °C 995.8 hPa South 2.9 km/h 4.8 km/h 91% 0 mm 0 W/m2
02:59 14.5 °C 13.5 °C 995.8 hPa South 3.5 km/h 6.4 km/h 91% 0 mm 0 W/m2
03:04 14.5 °C 13.5 °C 995.8 hPa SSE 3.5 km/h 8 km/h 91% 0 mm 0 W/m2
03:09 14.5 °C 13.5 °C 995.8 hPa SE 2.3 km/h 6.4 km/h 91% 0 mm 0 W/m2
03:14 14.5 °C 13.5 °C 995.8 hPa SE 2.3 km/h 6.4 km/h 91% 0 mm 0 W/m2
03:19 14.4 °C 13.4 °C 995.5 hPa SE 3.4 km/h 6.4 km/h 91% 0 mm 0 W/m2
03:24 14.4 °C 13.4 °C 995.5 hPa ESE 3.2 km/h 6.4 km/h 91% 0 mm 0 W/m2
03:29 14.4 °C 13.4 °C 995.5 hPa ESE 3.4 km/h 8 km/h 91% 0 mm 0 W/m2
03:34 14.4 °C 13.4 °C 995.5 hPa ESE 4.3 km/h 8 km/h 91% 0 mm 0 W/m2
03:39 14.4 °C 13.4 °C 995.1 hPa ESE 2.6 km/h 6.4 km/h 91% 0.25 mm 0 W/m2
03:44 14.4 °C 13.5 °C 995.1 hPa ESE 2.1 km/h 6.4 km/h 91.4% 0.25 mm 0 W/m2
03:49 14.4 °C 13.6 °C 995.1 hPa ESE 1.3 km/h 4.8 km/h 92% 0.25 mm 0 W/m2
03:54 14.4 °C 13.6 °C 995.1 hPa ESE 2.4 km/h 4.8 km/h 92% 0.25 mm 0 W/m2
03:59 14.3 °C 13.5 °C 995.1 hPa ESE 2.9 km/h 6.4 km/h 92% 0.25 mm 0 W/m2
04:04 14.3 °C 13.5 °C 994.8 hPa ESE 2.9 km/h 4.8 km/h 92% 0.25 mm 0 W/m2
04:09 14.3 °C 13.5 °C 994.8 hPa ESE 3.9 km/h 12.9 km/h 92% 0.25 mm 0 W/m2
04:14 14.3 °C 13.5 °C 994.8 hPa ESE 5.1 km/h 12.9 km/h 92% 0.51 mm 0 W/m2
04:19 14.2 °C 13.4 °C 994.5 hPa ESE 4.7 km/h 8 km/h 92% 0.51 mm 0 W/m2
04:24 14.2 °C 13.4 °C 994.5 hPa East 4.2 km/h 8 km/h 92% 0.51 mm 0 W/m2
04:29 14.2 °C 13.4 °C 994.5 hPa NNE 2.7 km/h 8 km/h 92% 0.51 mm 0 W/m2
04:34 14.2 °C 13.4 °C 994.1 hPa NNE 1.3 km/h 6.4 km/h 92% 0.51 mm 0 W/m2
04:39 14.2 °C 13.4 °C 994.1 hPa NNE 1.3 km/h 4.8 km/h 92% 0.51 mm 0 W/m2
04:44 14.2 °C 13.4 °C 994.1 hPa NNE 1.9 km/h 4.8 km/h 92% 0.51 mm 0 W/m2
04:49 14.2 °C 13.3 °C 994.1 hPa NNE 1.9 km/h 4.8 km/h 92% 0.51 mm 0 W/m2
04:54 14.2 °C 13.4 °C 994.1 hPa NNE 2.9 km/h 4.8 km/h 92.2% 0.51 mm 0 W/m2
04:59 14.2 °C 13.6 °C 994.1 hPa NNE 1.9 km/h 6.4 km/h 93% 0.51 mm 0 W/m2
05:04 14.1 °C 13.5 °C 993.8 hPa NNE 1 km/h 6.4 km/h 93% 0.76 mm 0 W/m2
05:09 14.1 °C 13.5 °C 993.8 hPa NNE 2.6 km/h 6.4 km/h 93% 1.02 mm 0 W/m2
05:14 14.1 °C 13.5 °C 993.8 hPa NNE 1.3 km/h 6.4 km/h 93% 1.02 mm 0 W/m2
05:19 14.1 °C 13.5 °C 993.8 hPa NNE 0.3 km/h 4.8 km/h 93% 1.27 mm 0 W/m2
05:24 14.1 °C 13.5 °C 993.8 hPa NNE 2.3 km/h 6.4 km/h 93% 1.52 mm 0 W/m2
05:29 14.1 °C 13.5 °C 993.8 hPa NNE 1.9 km/h 4.8 km/h 93% 1.52 mm 0 W/m2
05:34 14.1 °C 13.5 °C 993.5 hPa NNE 1.9 km/h 6.4 km/h 93% 1.78 mm 0 W/m2
05:39 14.1 °C 13.5 °C 993.5 hPa NNE 1.4 km/h 6.4 km/h 93% 1.78 mm 0 W/m2
05:44 14.1 °C 13.5 °C 993.5 hPa NE 3.9 km/h 8 km/h 93% 1.78 mm 0 W/m2
05:49 14 °C 13.4 °C 993.5 hPa ENE 1.3 km/h 11.3 km/h 93% 1.78 mm 0 W/m2
05:54 14 °C 13.4 °C 993.5 hPa East 2.6 km/h 9.7 km/h 93% 1.78 mm 0 W/m2
05:59 14 °C 13.4 °C 993.5 hPa East 1.8 km/h 8 km/h 93% 1.78 mm 0 W/m2
06:04 13.9 °C 13.3 °C 993.5 hPa East 0.6 km/h 4.8 km/h 93% 1.78 mm 0 W/m2
06:09 13.9 °C 13.3 °C 993.5 hPa East 0.8 km/h 8 km/h 93% 1.52 mm 0 W/m2
06:14 13.9 °C 13.3 °C 993.5 hPa East 1.8 km/h 8 km/h 93% 1.52 mm 0 W/m2
06:19 13.9 °C 13.3 °C 993.1 hPa East 1.6 km/h 4.8 km/h 93% 1.27 mm 0 W/m2
06:24 13.9 °C 13.3 °C 993.1 hPa East 1.9 km/h 8 km/h 93.6% 1.02 mm 0 W/m2
06:29 13.9 °C 13.4 °C 993.1 hPa ENE 2.7 km/h 9.7 km/h 94% 1.02 mm 0 W/m2
06:34 13.9 °C 13.4 °C 992.8 hPa ENE 1.8 km/h 8 km/h 94% 0.76 mm 0 W/m2
06:39 13.9 °C 13.4 °C 992.8 hPa ENE 2.1 km/h 6.4 km/h 94% 0.76 mm 0 W/m2
06:44 13.9 °C 13.4 °C 992.8 hPa East 3.1 km/h 11.3 km/h 94% 0.76 mm 0 W/m2
06:49 13.9 °C 13.4 °C 992.8 hPa East 2.3 km/h 8 km/h 94% 0.76 mm 0 W/m2
06:54 13.9 °C 13.4 °C 992.4 hPa East 3.1 km/h 8 km/h 94% 0.76 mm 0 W/m2
06:59 13.9 °C 13.4 °C 992.4 hPa East 1.4 km/h 8 km/h 94% 1.02 mm 0 W/m2
07:04 13.9 °C 13.4 °C 992.4 hPa East 1.6 km/h 4.8 km/h 94% 1.02 mm 0 W/m2
07:09 13.8 °C 13.3 °C 992.4 hPa Calm   4.8 km/h 94% 1.02 mm 0 W/m2
07:14 13.8 °C 13.3 °C 992.4 hPa East 1.3 km/h 4.8 km/h 94% 1.02 mm 0 W/m2
07:19 13.8 °C 13.3 °C 992.4 hPa East 0.8 km/h 8 km/h 94% 1.02 mm 0 W/m2
07:24 13.8 °C 13.3 °C 992.4 hPa East 0.6 km/h 3.2 km/h 94% 1.02 mm 0 W/m2
07:29 13.8 °C 13.3 °C 992.4 hPa East 0.6 km/h 3.2 km/h 94% 1.02 mm 0 W/m2
07:34 13.8 °C 13.3 °C 992.4 hPa East 0.8 km/h 8 km/h 94% 1.27 mm 0 W/m2
07:39 13.8 °C 13.3 °C 992.4 hPa East 0.6 km/h 3.2 km/h 94% 1.27 mm 0 W/m2
07:44 13.8 °C 13.3 °C 992.4 hPa East 2.1 km/h 8 km/h 94% 1.52 mm 0 W/m2
07:49 13.8 °C 13.3 °C 992.1 hPa East 3.4 km/h 9.7 km/h 94% 1.52 mm 0 W/m2
07:54 13.8 °C 13.3 °C 992.1 hPa East 2.1 km/h 9.7 km/h 94% 1.52 mm 0 W/m2
07:59 13.8 °C 13.3 °C 992.1 hPa East 0.3 km/h 4.8 km/h 94% 1.52 mm 0 W/m2
08:04 13.8 °C 13.3 °C 992.1 hPa East 2.6 km/h 8 km/h 94% 1.52 mm 0 W/m2
08:09 13.8 °C 13.3 °C 992.1 hPa ENE 3.2 km/h 8 km/h 94% 1.52 mm 0 W/m2
08:14 13.8 °C 13.3 °C 992.1 hPa NE 2.6 km/h 11.3 km/h 94% 1.52 mm 0 W/m2
08:19 13.8 °C 13.3 °C 992.1 hPa NE 1 km/h 4.8 km/h 94% 1.52 mm 5 W/m2
08:24 13.8 °C 13.3 °C 992.1 hPa NE 1.3 km/h 4.8 km/h 94% 1.52 mm 5 W/m2
08:29 13.8 °C 13.3 °C 991.8 hPa NNE 2.6 km/h 6.4 km/h 94% 1.52 mm 7 W/m2
08:34 13.8 °C 13.3 °C 991.8 hPa NNE 2.3 km/h 6.4 km/h 94% 1.78 mm 7 W/m2
08:39 13.8 °C 13.3 °C 991.8 hPa NE 3.4 km/h 14.5 km/h 94% 1.78 mm 9 W/m2
08:44 13.7 °C 13.2 °C 991.8 hPa NNE 1.3 km/h 6.4 km/h 94% 1.78 mm 11 W/m2
08:49 13.7 °C 13.2 °C 991.8 hPa NNE 2.3 km/h 8 km/h 94% 1.78 mm 12 W/m2
08:54 13.7 °C 13.2 °C 991.8 hPa NNE 2.1 km/h 6.4 km/h 94% 1.78 mm 12 W/m2
08:59 13.7 °C 13.2 °C 991.8 hPa NNE 2.3 km/h 6.4 km/h 94% 1.78 mm 12 W/m2
09:04 13.7 °C 13.2 °C 991.8 hPa NNE 5.5 km/h 9.7 km/h 94% 1.52 mm 16 W/m2
09:09 13.7 °C 13.2 °C 991.8 hPa North 2.7 km/h 9.7 km/h 94% 1.52 mm 16 W/m2
09:14 13.7 °C 13.2 °C 991.8 hPa NNE 4 km/h 11.3 km/h 94% 1.52 mm 19 W/m2
09:19 13.7 °C 13.2 °C 991.8 hPa NNE 1.9 km/h 8 km/h 94% 1.52 mm 21 W/m2
09:24 13.7 °C 13.2 °C 991.8 hPa NNE 2.6 km/h 6.4 km/h 94% 1.27 mm 23 W/m2
09:29 13.7 °C 13.3 °C 991.8 hPa North 4.8 km/h 8 km/h 94.2% 1.02 mm 25 W/m2
09:34 13.7 °C 13.3 °C 991.8 hPa NNW 3.9 km/h 9.7 km/h 94.2% 1.02 mm 30 W/m2
09:39 13.7 °C 13.3 °C 991.8 hPa NNW 3.9 km/h 9.7 km/h 94.4% 1.02 mm 30 W/m2
09:44 13.7 °C 13.3 °C 991.8 hPa NNW 4.2 km/h 8 km/h 94.4% 1.02 mm 32 W/m2
09:49 13.7 °C 13.3 °C 991.8 hPa North 6.1 km/h 9.7 km/h 94.8% 0.76 mm 32 W/m2
09:54 13.7 °C 13.4 °C 991.4 hPa North 5 km/h 11.3 km/h 95% 0.76 mm 33 W/m2
09:59 13.7 °C 13.4 °C 991.8 hPa North 4.5 km/h 8 km/h 95% 0.76 mm 33 W/m2
10:04 13.7 °C 13.4 °C 991.8 hPa North 4 km/h 9.7 km/h 95% 0.76 mm 30 W/m2
10:09 13.7 °C 13.4 °C 991.8 hPa NNW 5.1 km/h 9.7 km/h 95% 1.02 mm 25 W/m2
10:14 13.7 °C 13.4 °C 991.8 hPa NNW 3.4 km/h 8 km/h 95% 1.02 mm 33 W/m2
10:19 13.7 °C 13.4 °C 991.8 hPa NNW 3.4 km/h 9.7 km/h 95% 1.02 mm 33 W/m2
10:24 13.7 °C 13.4 °C 991.8 hPa NNW 5.3 km/h 12.9 km/h 95% 1.02 mm 26 W/m2
10:29 13.7 °C 13.4 °C 991.8 hPa NNW 5.1 km/h 14.5 km/h 95% 1.02 mm 30 W/m2
10:34 13.7 °C 13.4 °C 991.8 hPa NW 6.1 km/h 9.7 km/h 95% 1.27 mm 28 W/m2
10:39 13.7 °C 13.4 °C 991.8 hPa NNW 2.7 km/h 11.3 km/h 95% 1.27 mm 35 W/m2
10:44 13.7 °C 13.4 °C 991.8 hPa NNW 2.6 km/h 8 km/h 95% 1.27 mm 33 W/m2
10:49 13.7 °C 13.4 °C 991.8 hPa NNW 1.3 km/h 6.4 km/h 95% 1.27 mm 32 W/m2
10:54 13.6 °C 13.3 °C 991.8 hPa NNW 3.2 km/h 8 km/h 95% 1.27 mm 40 W/m2
10:59 13.6 °C 13.3 °C 991.8 hPa NNW 3.4 km/h 11.3 km/h 95% 1.27 mm 47 W/m2
11:04 13.7 °C 13.3 °C 992.1 hPa NNW 4.2 km/h 9.7 km/h 95% 1.27 mm 49 W/m2
11:09 13.7 °C 13.4 °C 992.1 hPa NW 4.3 km/h 9.7 km/h 95% 1.27 mm 56 W/m2
11:14 13.7 °C 13.4 °C 992.1 hPa North 3.7 km/h 9.7 km/h 95% 1.27 mm 65 W/m2
11:19 13.6 °C 13.3 °C 992.1 hPa NNW 4.5 km/h 14.5 km/h 95% 1.02 mm 69 W/m2
11:24 13.6 °C 13.3 °C 992.1 hPa NNW 4.7 km/h 11.3 km/h 95% 1.02 mm 67 W/m2
11:29 13.6 °C 13.3 °C 992.4 hPa NNW 2.7 km/h 8 km/h 95% 0.76 mm 62 W/m2
11:34 13.6 °C 13.3 °C 992.4 hPa NW 2.6 km/h 12.9 km/h 95% 0.76 mm 63 W/m2
11:39 13.6 °C 13.3 °C 992.4 hPa NW 2.4 km/h 8 km/h 95% 0.76 mm 84 W/m2
11:44 13.6 °C 13.3 °C 992.4 hPa NW 1.9 km/h 6.4 km/h 95% 0.51 mm 113 W/m2
11:49 13.6 °C 13.3 °C 992.4 hPa NW 1.3 km/h 6.4 km/h 95% 0.51 mm 121 W/m2
11:54 13.6 °C 13.3 °C 992.4 hPa NW 1.9 km/h 8 km/h 95% 0.51 mm 118 W/m2
11:59 13.7 °C 13.4 °C 992.8 hPa NW 2.6 km/h 6.4 km/h 95% 0.51 mm 113 W/m2
12:04 13.7 °C 13.4 °C 992.8 hPa NW 3.4 km/h 6.4 km/h 95% 0.51 mm 98 W/m2
12:09 13.7 °C 13.4 °C 992.8 hPa NW 2.4 km/h 6.4 km/h 95% 0.25 mm 91 W/m2
12:14 13.8 °C 13.5 °C 992.8 hPa NW 2.1 km/h 8 km/h 95% 0.25 mm 104 W/m2
12:19 13.8 °C 13.6 °C 993.1 hPa NW 1.9 km/h 8 km/h 95% 0.25 mm 148 W/m2
12:24 13.9 °C 13.6 °C 993.1 hPa NW 3.4 km/h 6.4 km/h 95% 0.25 mm 181 W/m2
12:29 14 °C 13.7 °C 993.1 hPa NW 2.9 km/h 11.3 km/h 95% 0.25 mm 192 W/m2
12:33 13.9 °C 13.7 °C 993.1 hPa WNW 10 km/h 14.5 km/h 95% 0.25 mm 174 W/m2
12:39 13.8 °C 13.4 °C 993.5 hPa WNW 8.5 km/h 14.5 km/h 94.8% 0 mm 128 W/m2
12:44 13.8 °C 13.4 °C 993.5 hPa NW 6 km/h 12.9 km/h 94.6% 0 mm 113 W/m2
12:49 13.7 °C 13.3 °C 993.5 hPa WNW 5.1 km/h 12.9 km/h 94.4% 0 mm 98 W/m2
12:54 13.7 °C 13.2 °C 993.5 hPa WNW 6.8 km/h 16.1 km/h 94% 0 mm 97 W/m2
12:59 13.7 °C 13.2 °C 993.5 hPa WNW 4.8 km/h 16.1 km/h 94% 0 mm 113 W/m2
13:04 13.8 °C 13.3 °C 993.8 hPa WNW 5.8 km/h 12.9 km/h 94% 0 mm 132 W/m2
13:09 13.8 °C 13.3 °C 993.8 hPa WNW 6.6 km/h 12.9 km/h 94% 0 mm 132 W/m2
13:14 13.8 °C 13.3 °C 993.8 hPa WNW 9 km/h 12.9 km/h 94.2% 0 mm 128 W/m2
13:19 13.7 °C 13.2 °C 994.1 hPa WNW 7.7 km/h 16.1 km/h 94% 0 mm 130 W/m2
13:24 13.7 °C 13.2 °C 994.1 hPa WNW 8.5 km/h 14.5 km/h 94% 0 mm 139 W/m2
13:29 13.7 °C 13.2 °C 994.1 hPa WNW 5.1 km/h 14.5 km/h 94% 0 mm 153 W/m2
13:34 13.8 °C 13.3 °C 994.5 hPa WNW 5.5 km/h 9.7 km/h 94% 0 mm 179 W/m2
13:39 13.8 °C 13.3 °C 994.5 hPa WNW 4.8 km/h 12.9 km/h 94% 0 mm 206 W/m2
13:44 13.8 °C 13.3 °C 994.5 hPa WNW 5 km/h 12.9 km/h 94% 0 mm 218 W/m2
13:49 13.9 °C 13.4 °C 994.8 hPa WNW 5.6 km/h 11.3 km/h 94% 0 mm 209 W/m2
13:54 14.1 °C 13.6 °C 994.8 hPa West 6.8 km/h 12.9 km/h 94% 0 mm 220 W/m2
13:59 14.1 °C 13.6 °C 994.8 hPa West 5.6 km/h 14.5 km/h 94% 0 mm 227 W/m2
14:04 14.2 °C 13.7 °C 995.1 hPa West 6 km/h 14.5 km/h 94% 0 mm 227 W/m2
14:09 14.2 °C 13.7 °C 995.1 hPa WNW 5 km/h 14.5 km/h 94% 0 mm 230 W/m2
14:14 14.3 °C 13.8 °C 995.1 hPa West 6.8 km/h 12.9 km/h 94% 0 mm 220 W/m2
14:19 14.3 °C 13.8 °C 995.1 hPa West 5.1 km/h 11.3 km/h 94% 0 mm 172 W/m2
14:24 14.3 °C 13.8 °C 995.5 hPa WNW 5.8 km/h 14.5 km/h 94% 0 mm 121 W/m2
14:29 14.3 °C 13.8 °C 995.5 hPa West 3.9 km/h 8 km/h 94% 0 mm 83 W/m2
14:34 14.2 °C 13.7 °C 995.5 hPa West 3.9 km/h 8 km/h 94% 0 mm 88 W/m2
14:39 14.2 °C 13.7 °C 995.5 hPa WNW 4.7 km/h 8 km/h 94% 0 mm 104 W/m2
14:44 14.2 °C 13.7 °C 995.8 hPa West 4.7 km/h 11.3 km/h 94% 0 mm 118 W/m2
14:49 14.2 °C 13.7 °C 995.8 hPa WSW 6 km/h 14.5 km/h 94% 0 mm 137 W/m2
14:54 14.2 °C 13.6 °C 995.8 hPa WNW 9.2 km/h 17.7 km/h 93.4% 0 mm 125 W/m2
14:59 14.1 °C 13.5 °C 995.8 hPa West 10.9 km/h 16.1 km/h 93% 0 mm 88 W/m2
15:04 14.1 °C 13.5 °C 996.2 hPa West 5.8 km/h 12.9 km/h 93% 0 mm 81 W/m2
15:09 14 °C 13.3 °C 996.2 hPa West 8.4 km/h 22.5 km/h 92.4% 0 mm 74 W/m2
15:14 14 °C 13.2 °C 996.2 hPa WSW 6.3 km/h 11.3 km/h 92% 0 mm 51 W/m2
15:19 14 °C 13.2 °C 996.2 hPa West 4.8 km/h 8 km/h 92% 0 mm 47 W/m2
15:24 14.1 °C 13.3 °C 996.2 hPa West 2.9 km/h 6.4 km/h 92% 0 mm 77 W/m2
15:29 14.1 °C 13.3 °C 996.5 hPa West 1.6 km/h 6.4 km/h 92% 0 mm 67 W/m2
15:34 14.1 °C 13.3 °C 996.5 hPa WSW 1.9 km/h 9.7 km/h 92% 0 mm 69 W/m2
15:39 14.2 °C 13.6 °C 996.5 hPa WSW 5 km/h 12.9 km/h 93% 0 mm 104 W/m2
15:44 14.2 °C 13.6 °C 996.8 hPa WSW 3.5 km/h 12.9 km/h 93% 0 mm 88 W/m2
15:49 14.2 °C 13.6 °C 996.8 hPa WSW 4.3 km/h 14.5 km/h 93% 0 mm 67 W/m2
15:54 14.2 °C 13.6 °C 996.8 hPa West 6.4 km/h 12.9 km/h 93% 0 mm 163 W/m2
15:59 14.2 °C 13.6 °C 996.8 hPa WSW 5 km/h 14.5 km/h 93% 0 mm 141 W/m2
16:04 14.3 °C 13.7 °C 996.8 hPa WNW 4.7 km/h 11.3 km/h 93% 0 mm 116 W/m2
16:09 14.3 °C 13.7 °C 997.2 hPa West 3.4 km/h 11.3 km/h 93% 0 mm 79 W/m2
16:14 14.3 °C 13.7 °C 997.2 hPa West 7.4 km/h 12.9 km/h 93% 0 mm 72 W/m2
16:19 14.3 °C 13.6 °C 997.2 hPa West 4 km/h 11.3 km/h 92.4% 0 mm 60 W/m2
16:24 14.3 °C 13.5 °C 997.2 hPa West 4.7 km/h 11.3 km/h 92.2% 0 mm 54 W/m2
16:29 14.2 °C 13.6 °C 997.5 hPa West 8.2 km/h 12.9 km/h 92.8% 0 mm 51 W/m2
16:34 14.2 °C 13.5 °C 997.5 hPa West 3.7 km/h 8 km/h 92.4% 0 mm 49 W/m2
16:39 14.3 °C 13.5 °C 997.5 hPa West 1 km/h 6.4 km/h 92% 0 mm 46 W/m2
16:44 14.3 °C 13.5 °C 997.9 hPa Calm   3.2 km/h 92% 0 mm 42 W/m2
16:49 14.3 °C 13.6 °C 997.9 hPa West 0.3 km/h 1.6 km/h 92% 0 mm 37 W/m2
16:54 14.4 °C 13.6 °C 997.9 hPa Calm   1.6 km/h 92% 0 mm 30 W/m2
16:59 14.4 °C 13.6 °C 997.9 hPa West 1 km/h 4.8 km/h 92% 0 mm 26 W/m2
17:04 14.4 °C 13.6 °C 997.9 hPa Calm   3.2 km/h 92% 0 mm 26 W/m2
17:09 14.4 °C 13.6 °C 997.9 hPa West 0.3 km/h 4.8 km/h 92% 0 mm 26 W/m2
17:14 14.4 °C 13.6 °C 997.9 hPa West 1.3 km/h 3.2 km/h 92% 0 mm 25 W/m2
17:19 14.4 °C 13.6 °C 997.9 hPa West 2.3 km/h 4.8 km/h 92% 0 mm 23 W/m2
17:24 14.4 °C 13.6 °C 998.2 hPa West 0.6 km/h 4.8 km/h 92% 0 mm 18 W/m2
17:29 14.4 °C 13.6 °C 998.2 hPa Calm   3.2 km/h 92% 0 mm 12 W/m2
17:34 14.4 °C 13.6 °C 998.2 hPa Calm     92% 0 mm 14 W/m2
17:39 14.4 °C 13.6 °C 998.2 hPa West 1 km/h 6.4 km/h 92% 0 mm 12 W/m2
17:44 14.4 °C 13.6 °C 998.5 hPa SSW 6.8 km/h 12.9 km/h 92% 0 mm 0 W/m2
17:49 14.3 °C 13.6 °C 998.5 hPa South 6.6 km/h 14.5 km/h 92% 0 mm 0 W/m2
17:54 14.2 °C 13.4 °C 998.5 hPa SW 6.9 km/h 17.7 km/h 92% 0 mm 0 W/m2
17:59 14.2 °C 13.4 °C 998.5 hPa SW 4.5 km/h 12.9 km/h 92% 0 mm 0 W/m2
18:04 14.2 °C 13.3 °C 998.5 hPa SW 5.1 km/h 11.3 km/h 92% 0 mm 0 W/m2
18:09 14.1 °C 13.3 °C 998.5 hPa SW 6.6 km/h 14.5 km/h 92% 0 mm 0 W/m2
18:14 14.1 °C 13.2 °C 998.9 hPa SW 6.3 km/h 12.9 km/h 91.6% 0 mm 0 W/m2
18:19 14.1 °C 13.2 °C 998.9 hPa WSW 6.6 km/h 16.1 km/h 91.4% 0 mm 0 W/m2
18:24 14.1 °C 13.1 °C 998.9 hPa SW 8.2 km/h 16.1 km/h 91% 0 mm 0 W/m2
18:29 14.1 °C 13.1 °C 998.9 hPa SW 7.1 km/h 12.9 km/h 91% 0.25 mm 0 W/m2
18:34 14.1 °C 13.1 °C 998.9 hPa SW 6.9 km/h 14.5 km/h 91% 0.25 mm 0 W/m2
18:39 14.1 °C 13.1 °C 999.2 hPa WSW 5.5 km/h 14.5 km/h 91% 0.25 mm 0 W/m2
18:44 14.1 °C 13.1 °C 999.2 hPa SW 3.9 km/h 12.9 km/h 91% 0.25 mm 0 W/m2
18:49 14.1 °C 13.1 °C 999.2 hPa SW 3.9 km/h 9.7 km/h 91% 0 mm 0 W/m2
18:54 14.1 °C 13.1 °C 999.2 hPa SW 0.8 km/h 8 km/h 91% 0 mm 0 W/m2
18:59 14 °C 13 °C 999.2 hPa WSW 5.5 km/h 9.7 km/h 91% 0 mm 0 W/m2
19:04 14 °C 13 °C 999.2 hPa SW 2.3 km/h 9.7 km/h 91% 0 mm 0 W/m2
19:09 13.9 °C 12.9 °C 999.5 hPa SSW 3.1 km/h 9.7 km/h 91% 0 mm 0 W/m2
19:14 13.9 °C 12.9 °C 999.5 hPa SSW 4.7 km/h 11.3 km/h 91% 0 mm 0 W/m2
19:19 13.9 °C 13 °C 999.5 hPa SSW 5 km/h 14.5 km/h 91.4% 0 mm 0 W/m2
19:24 13.9 °C 13 °C 999.5 hPa SSW 6.4 km/h 12.9 km/h 91.6% 0 mm 0 W/m2
19:29 13.9 °C 13.1 °C 999.5 hPa SW 6.4 km/h 12.9 km/h 92% 0 mm 0 W/m2
19:34 13.9 °C 13.1 °C 999.9 hPa SW 7.4 km/h 17.7 km/h 92% 0 mm 0 W/m2
19:39 13.9 °C 13.1 °C 999.9 hPa SW 3.2 km/h 12.9 km/h 92% 0 mm 0 W/m2
19:44 13.9 °C 13.1 °C 999.9 hPa SW 4.7 km/h 11.3 km/h 92% 0 mm 0 W/m2
19:49 13.9 °C 13.1 °C 999.9 hPa SW 4 km/h 9.7 km/h 92% 0 mm 0 W/m2
19:54 13.9 °C 13.1 °C 1000.2 hPa SSW 4.7 km/h 17.7 km/h 92% 0 mm 0 W/m2
19:59 13.9 °C 13.1 °C 1000.2 hPa SSW 5.1 km/h 19.3 km/h 92% 0 mm 0 W/m2
20:04 13.9 °C 12.9 °C 1000.2 hPa SW 9.7 km/h 19.3 km/h 91% 0 mm 0 W/m2
20:09 13.9 °C 12.9 °C 1000.2 hPa SW 10.9 km/h 16.1 km/h 91% 0 mm 0 W/m2
20:14 13.9 °C 12.9 °C 1000.2 hPa SW 6.4 km/h 12.9 km/h 91% 0 mm 0 W/m2
20:19 13.9 °C 12.9 °C 1000.2 hPa SW 4 km/h 11.3 km/h 91% 0 mm 0 W/m2
20:24 13.8 °C 12.8 °C 1000.2 hPa SW 5.6 km/h 12.9 km/h 90.8% 0 mm 0 W/m2
20:29 13.8 °C 12.7 °C 1000.2 hPa WSW 6.4 km/h 11.3 km/h 90% 0 mm 0 W/m2
20:34 13.8 °C 12.7 °C 1000.2 hPa SW 6.4 km/h 16.1 km/h 90% 0 mm 0 W/m2
20:39 13.8 °C 12.7 °C 1000.2 hPa SW 8.5 km/h 20.9 km/h 90% 0 mm 0 W/m2
20:44 13.7 °C 12.6 °C 1000.2 hPa SW 8.9 km/h 24.1 km/h 90% 0 mm 0 W/m2
20:49 13.7 °C 12.6 °C 1000.2 hPa SW 3.4 km/h 11.3 km/h 90% 0 mm 0 W/m2
20:54 13.7 °C 12.6 °C 1000.2 hPa SW 4.5 km/h 9.7 km/h 90% 0 mm 0 W/m2
20:59 13.7 °C 12.6 °C 1000.6 hPa SW 10.3 km/h 20.9 km/h 90% 0 mm 0 W/m2
21:04 13.6 °C 12.5 °C 1000.6 hPa WSW 10.9 km/h 25.7 km/h 90% 0 mm 0 W/m2
21:09 13.6 °C 12.5 °C 1000.6 hPa SW 8.7 km/h 20.9 km/h 90% 0 mm 0 W/m2
21:13 13.6 °C 12.3 °C 1000.6 hPa WSW 11.7 km/h 19.3 km/h 89.3% 0 mm 0 W/m2
21:19 13.5 °C 12.2 °C 1000.6 hPa WSW 9.7 km/h 20.9 km/h 89% 0 mm 0 W/m2
21:24 13.4 °C 12.1 °C 1000.9 hPa WSW 9 km/h 17.7 km/h 89% 0 mm 0 W/m2
21:29 13.3 °C 11.9 °C 1000.9 hPa SW 12.6 km/h 20.9 km/h 88.6% 0 mm 0 W/m2
21:34 13.3 °C 11.8 °C 1000.9 hPa SW 8 km/h 19.3 km/h 88% 0 mm 0 W/m2
21:39 13.2 °C 11.7 °C 1000.9 hPa SW 11.6 km/h 22.5 km/h 88% 0 mm 0 W/m2
21:44 13.1 °C 11.6 °C 1000.9 hPa SW 12.1 km/h 22.5 km/h 88% 0 mm 0 W/m2
21:49 13.1 °C 11.6 °C 1001.2 hPa SW 11.3 km/h 27.4 km/h 88% 0 mm 0 W/m2
21:54 12.9 °C 11.6 °C 1001.2 hPa SSW 11.7 km/h 27.4 km/h 88% 0 mm 0 W/m2
21:59 12.9 °C 11.5 °C 1001.2 hPa SSW 13.5 km/h 20.9 km/h 88% 0 mm 0 W/m2
22:04 12.8 °C 11.4 °C 1001.2 hPa SSW 15.1 km/h 22.5 km/h 87.8% 0 mm 0 W/m2
22:09 12.8 °C 11.2 °C 1001.2 hPa SW 10 km/h 25.7 km/h 87% 0 mm 0 W/m2
22:14 12.8 °C 11.2 °C 1001.6 hPa SW 14.5 km/h 30.6 km/h 87% 0 mm 0 W/m2
22:19 12.7 °C 11 °C 1001.6 hPa SW 7.7 km/h 20.9 km/h 86.4% 0 mm 0 W/m2
22:24 12.7 °C 10.9 °C 1001.6 hPa SW 9.2 km/h 19.3 km/h 86% 0 mm 0 W/m2
22:29 12.6 °C 10.8 °C 1001.6 hPa SW 12.2 km/h 25.7 km/h 86% 0 mm 0 W/m2
22:34 12.6 °C 10.8 °C 1001.6 hPa SW 11.6 km/h 20.9 km/h 86% 0 mm 0 W/m2
22:39 12.6 °C 10.7 °C 1001.6 hPa SW 13.5 km/h 20.9 km/h 85.8% 0 mm 0 W/m2
22:44 12.6 °C 10.6 °C 1001.6 hPa SW 15.9 km/h 24.1 km/h 85.2% 0 mm 0 W/m2
22:49 12.5 °C 10.7 °C 1001.6 hPa SW 16.7 km/h 27.4 km/h 86% 0 mm 0 W/m2
22:54 12.4 °C 10.7 °C 1001.9 hPa SW 8.4 km/h 24.1 km/h 86% 0 mm 0 W/m2
22:59 12.4 °C 10.6 °C 1001.9 hPa SW 10.9 km/h 20.9 km/h 86% 0 mm 0 W/m2
23:04 12.3 °C 10.6 °C 1001.9 hPa SW 11.3 km/h 24.1 km/h 86% 0 mm 0 W/m2
23:09 12.3 °C 10.6 °C 1001.9 hPa SW 13.2 km/h 27.4 km/h 86.8% 0 mm 0 W/m2
23:14 12.2 °C 10.6 °C 1001.9 hPa SW 11.1 km/h 27.4 km/h 87% 0 mm 0 W/m2
23:19 12.1 °C 10.7 °C 1001.9 hPa SW 10.3 km/h 24.1 km/h 87.8% 0 mm 0 W/m2
23:24 12.1 °C 10.7 °C 1001.9 hPa SW 8.4 km/h 24.1 km/h 88% 0 mm 0 W/m2
23:29 12 °C 10.6 °C 1001.9 hPa SW 15.1 km/h 25.7 km/h 88% 0 mm 0 W/m2
23:34 12 °C 10.6 °C 1001.9 hPa SW 13.5 km/h 25.7 km/h 88% 0 mm 0 W/m2
23:39 12.1 °C 10.7 °C 1001.9 hPa WSW 13.2 km/h 19.3 km/h 88% 0 mm 0 W/m2
23:44 12.1 °C 10.7 °C 1002.3 hPa SW 14.5 km/h 24.1 km/h 88% 0 mm 0 W/m2
23:49 12.2 °C 10.7 °C 1002.3 hPa SW 13.7 km/h 24.1 km/h 88% 0 mm 0 W/m2
23:54 12.2 °C 10.7 °C 1002.3 hPa SW 8.2 km/h 16.1 km/h 88% 0 mm 0 W/m2
23:59 12.1 °C 10.7 °C 1002.3 hPa SW 14.5 km/h 24.1 km/h 88% 0 mm 0 W/m2
Bath Spa Weather
Compliments of Weather Underground - 2 mb